DB0SWS-6 Weather Reports


time (UTC)temp
F
wind
direction
speed
knots
gust
knots
rain 1hr
in
rain 24hr
in
rain mn
in
humidity
%
barometer
mb
20260506173329 50 270 0.0 0.0 0.07 0.51 0.51 99 954.1
20260506170331 51 270 0.0 0.0 0.05 0.48 0.47 99 953.9
20260506163330 50 202 0.0 0.0 0.04 0.46 0.44 99 954.1
20260506160331 51 267 0.9 1.7 0.04 0.54 0.43 98 954.0
20260506153330 51 248 1.7 2.6 0.06 0.53 0.40 98 954.0
20260506150329 52 248 0.9 1.7 0.19 0.52 0.39 99 953.8
20260506143330 52 338 0.9 4.3 0.22 0.47 0.34 99 953.7
20260506140329 53 225 0.0 0.0 0.08 0.33 0.20 98 953.3
20260506133330 54 0 0.0 0.0 0.06 0.25 0.12 94 953.2
20260506130328 55 90 0.0 0.9 0.12 0.25 0.12 97 952.7
20260506123328 57 248 0.0 0.0 0.06 0.19 0.06 89 952.7
20260506120330 59 270 1.7 2.6 0.00 0.14 0.00 78 952.5
20260506113329 58 248 0.9 1.7 0.00 0.14 0.00 80 952.6
20260506110330 59 315 0.0 0.9 0.00 0.15 0.00 81 952.6
20260506103331 58 280 1.7 2.6 0.00 0.15 0.00 81 952.9
20260506100330 58 270 4.3 6.1 0.00 0.15 0.00 81 952.8
20260506093330 57 251 1.7 5.2 0.00 0.15 0.00 84 952.9
20260506090331 58 301 0.9 1.7 0.00 0.15 0.00 84 952.7
20260506083329 59 270 2.6 5.2 0.00 0.15 0.00 79 952.5
20260506080330 59 284 4.3 6.1 0.00 0.15 0.00 77 952.4
20260506073330 57 248 0.9 1.7 0.00 0.15 0.00 80 952.3
20260506070330 58 248 50.4 50.4 0.00 0.15 0.00 10 952.3
20260506060329 54 68 0.9 1.7 0.00 0.15 0.00 91 952.7
20260506050329 48 112 0.0 0.0 0.00 0.15 0.00 99 952.9
20260506043330 48 135 0.0 0.0 0.00 0.15 0.00 99 953.1
20260506040329 48 190 0.0 0.0 0.00 0.15 0.00 99 953.0
20260506030329 51 225 0.0 0.0 0.00 0.15 0.00 99 953.3
20260506010330 51 225 0.0 0.0 0.00 0.15 0.00 99 954.0
20260506003329 51 225 0.0 0.0 0.00 0.15 0.00 99 954.2
20260505233329 52 225 0.0 0.0 0.00 0.15 0.00 99 954.5
20260505230328 52 225 0.0 0.0 0.00 0.15 0.00 99 954.8
20260505223329 52 225 0.0 0.0 0.00 0.15 0.00 99 954.8
20260505220330 52 225 0.0 0.0 0.00 0.15 0.00 99 954.8
20260505213331 52 225 0.0 0.0 0.00 0.15 0.15 99 954.7
20260505210329 53 225 0.0 0.0 0.00 0.15 0.15 99 954.7
20260505203328 53 248 0.0 0.9 0.00 0.15 0.15 99 954.5
20260505200329 53 228 0.0 0.9 0.00 0.15 0.15 99 954.4
20260505190330 53 248 0.0 0.0 0.00 0.15 0.15 99 954.2
20260505183331 54 248 0.0 0.0 0.00 0.15 0.15 99 954.0
20260505180330 54 248 0.9 1.7 0.01 0.15 0.15 97 954.0